Time,TemperatureF,DewpointF,PressureIn,WindDirection,WindDirectionDegrees,WindSpeedMPH,WindSpeedGustMPH,Humidity,HourlyPrecipIn,Conditions,Clouds,dailyrainin,SoftwareType,DateUTC
2013-10-17 00:01:00,59.1,57.4,29.97,ESE,104,0.0,0.0,94,0.00,CLR,,0.00,WeatherDisplay:10.37,2013-10-17 04:01:00,
2013-10-17 00:02:00,59.1,57.4,29.97,ESE,103,0.0,0.0,94,0.00,CLR,,0.00,WeatherDisplay:10.37,2013-10-17 04:02:00,
2013-10-17 00:03:00,59.1,57.4,29.97,ESE,103,0.0,0.0,94,0.00,CLR,,0.00,WeatherDisplay:10.37,2013-10-17 04:03:00,
2013-10-17 00:05:00,59.1,57.4,29.97,ESE,103,0.0,0.0,94,0.00,CLR,,0.00,WeatherDisplay:10.37,2013-10-17 04:05:00,
2013-10-17 00:10:00,59.1,57.4,29.97,ESE,104,0.0,0.0,94,0.00,CLR,,0.00,WeatherDisplay:10.37,2013-10-17 04:10:00,
2013-10-17 00:15:00,59.1,57.4,29.96,ESE,104,0.0,0.0,94,0.00,CLR,,0.00,WeatherDisplay:10.37,2013-10-17 04:15:00,
2013-10-17 00:20:00,59.1,57.4,29.96,ESE,104,0.0,0.0,94,0.00,CLR,,0.00,WeatherDisplay:10.37,2013-10-17 04:20:00,
2013-10-17 00:25:00,59.1,57.4,29.96,ESE,103,0.0,0.0,94,0.00,CLR,,0.00,WeatherDisplay:10.37,2013-10-17 04:25:00,
2013-10-17 00:30:00,59.0,57.3,29.96,ESE,104,0.0,0.0,94,0.00,CLR,,0.00,WeatherDisplay:10.37,2013-10-17 04:30:00,
2013-10-17 00:35:00,59.0,57.6,29.96,ESE,104,0.0,0.0,95,0.00,CLR,,0.00,WeatherDisplay:10.37,2013-10-17 04:35:00,
2013-10-17 00:40:00,58.9,57.5,29.96,ESE,104,0.0,0.0,95,0.00,CLR,,0.00,WeatherDisplay:10.37,2013-10-17 04:40:00,
2013-10-17 01:35:00,58.8,57.4,29.96,ESE,103,1.2,1.2,95,0.00,CLR,,0.00,WeatherDisplay:10.37,2013-10-17 05:35:00,
2013-10-17 01:40:00,58.8,57.4,29.95,ESE,104,0.0,0.0,95,0.00,CLR,,0.00,WeatherDisplay:10.37,2013-10-17 05:40:00,
2013-10-17 01:45:00,58.8,57.4,29.95,ESE,104,0.0,0.0,95,0.00,CLR,,0.00,WeatherDisplay:10.37,2013-10-17 05:45:00,
2013-10-17 01:50:00,59.0,57.9,29.96,ESE,103,0.0,0.0,96,0.00,CLR,,0.00,WeatherDisplay:10.37,2013-10-17 05:50:00,
2013-10-17 01:55:00,59.1,58.0,29.96,ESE,104,0.0,0.0,96,0.00,CLR,,0.00,WeatherDisplay:10.37,2013-10-17 05:55:00,
2013-10-17 02:00:00,59.1,58.0,29.96,ESE,103,0.0,0.0,96,0.00,CLR,,0.00,WeatherDisplay:10.37,2013-10-17 06:00:00,
2013-10-17 02:05:00,59.1,58.0,29.95,ESE,104,1.2,1.2,96,0.00,CLR,,0.00,WeatherDisplay:10.37,2013-10-17 06:05:00,
2013-10-17 02:10:00,59.1,58.0,29.95,ESE,107,0.0,0.0,96,0.00,CLR,,0.00,WeatherDisplay:10.37,2013-10-17 06:10:00,
2013-10-17 02:15:00,59.1,58.0,29.95,ESE,107,1.2,0.0,96,0.00,CLR,,0.00,WeatherDisplay:10.37,2013-10-17 06:15:00,
2013-10-17 02:20:00,59.2,58.1,29.95,ESE,106,1.2,0.0,96,0.00,CLR,,0.00,WeatherDisplay:10.37,2013-10-17 06:20:00,
2013-10-17 02:25:00,59.4,58.3,29.95,ESE,106,0.0,0.0,96,0.00,CLR,,0.00,WeatherDisplay:10.37,2013-10-17 06:25:00,
2013-10-17 02:30:00,59.5,58.4,29.95,ESE,107,1.2,0.0,96,0.00,CLR,,0.00,WeatherDisplay:10.37,2013-10-17 06:30:00,
2013-10-17 02:35:00,59.6,58.5,29.95,ESE,106,0.0,0.0,96,0.00,CLR,,0.00,WeatherDisplay:10.37,2013-10-17 06:35:00,
2013-10-17 02:40:00,59.7,58.6,29.95,ESE,107,1.0,1.0,96,0.00,CLR,,0.00,WeatherDisplay:10.37,2013-10-17 06:40:00,
2013-10-17 02:45:00,59.9,58.8,29.95,ESE,107,0.0,0.0,96,0.00,CLR,,0.00,WeatherDisplay:10.37,2013-10-17 06:45:00,
2013-10-17 02:50:00,60.0,58.9,29.94,ESE,107,0.0,0.0,96,0.00,CLR,,0.00,WeatherDisplay:10.37,2013-10-17 06:50:00,
2013-10-17 02:55:00,60.0,58.9,29.94,ESE,106,0.0,0.0,96,0.00,CLR,,0.00,WeatherDisplay:10.37,2013-10-17 06:55:00,
2013-10-17 03:00:00,60.1,59.0,29.94,ESE,107,0.0,0.0,96,0.00,CLR,,0.00,WeatherDisplay:10.37,2013-10-17 07:00:00,
2013-10-17 03:05:00,60.1,59.0,29.93,ESE,107,1.2,0.0,96,0.00,CLR,,0.00,WeatherDisplay:10.37,2013-10-17 07:05:00,
2013-10-17 03:10:00,60.2,59.1,29.93,ESE,107,0.0,0.0,96,0.00,CLR,,0.00,WeatherDisplay:10.37,2013-10-17 07:10:00,
2013-10-17 03:15:00,60.3,59.2,29.93,ESE,107,0.0,0.0,96,0.00,CLR,,0.00,WeatherDisplay:10.37,2013-10-17 07:15:00,
2013-10-17 03:20:00,60.3,59.2,29.93,ESE,107,0.0,0.0,96,0.00,CLR,,0.00,WeatherDisplay:10.37,2013-10-17 07:20:00,
2013-10-17 03:25:00,60.4,59.3,29.93,ESE,106,0.0,0.0,96,0.00,CLR,,0.00,WeatherDisplay:10.37,2013-10-17 07:25:00,
2013-10-17 03:30:00,60.4,59.3,29.93,ESE,107,0.0,0.0,96,0.00,CLR,,0.00,WeatherDisplay:10.37,2013-10-17 07:30:00,
2013-10-17 03:35:00,60.4,59.3,29.93,ESE,106,0.0,0.0,96,0.00,CLR,,0.00,WeatherDisplay:10.37,2013-10-17 07:35:00,
2013-10-17 03:40:00,60.4,59.3,29.93,ESE,107,0.0,0.0,96,0.00,CLR,,0.00,WeatherDisplay:10.37,2013-10-17 07:40:00,
2013-10-17 03:45:00,60.4,59.3,29.93,ESE,107,0.0,0.0,96,0.00,CLR,,0.00,WeatherDisplay:10.37,2013-10-17 07:45:00,
2013-10-17 03:50:00,60.4,59.3,29.92,ESE,106,0.0,0.0,96,0.00,CLR,,0.00,WeatherDisplay:10.37,2013-10-17 07:50:00,
2013-10-17 03:55:00,60.3,59.2,29.93,ESE,107,0.0,0.0,96,0.00,CLR,,0.00,WeatherDisplay:10.37,2013-10-17 07:55:00,
2013-10-17 04:00:00,60.3,59.2,29.93,ESE,107,0.0,0.0,96,0.00,CLR,,0.00,WeatherDisplay:10.37,2013-10-17 08:00:00,
2013-10-17 04:05:00,60.2,59.1,29.92,ESE,106,0.0,0.0,96,0.00,CLR,,0.00,WeatherDisplay:10.37,2013-10-17 08:05:00,
2013-10-17 04:09:00,60.2,59.1,29.92,ESE,106,0.0,0.0,96,0.00,CLR,,0.00,WeatherDisplay:10.37,2013-10-17 08:09:00,
2013-10-17 04:19:00,60.1,59.5,29.92,ESE,107,0.0,0.0,98,0.00,CLR,,0.00,WeatherDisplay:10.37,2013-10-17 08:19:00,
2013-10-17 04:24:00,60.0,59.4,29.92,ESE,107,0.0,0.0,98,0.00,CLR,,0.00,WeatherDisplay:10.37,2013-10-17 08:24:00,
2013-10-17 04:29:00,59.9,59.3,29.92,ESE,107,0.0,0.0,98,0.00,CLR,,0.00,WeatherDisplay:10.37,2013-10-17 08:29:00,
2013-10-17 04:34:00,59.8,58.7,29.93,ESE,106,0.0,0.0,96,0.00,,,0.00,WeatherDisplay:10.37,2013-10-17 08:34:00,
2013-10-17 04:39:00,59.7,58.6,29.93,ESE,107,0.0,0.0,96,0.00,,,0.00,WeatherDisplay:10.37,2013-10-17 08:39:00,
2013-10-17 04:44:00,59.5,58.4,29.92,ESE,107,0.0,0.0,96,0.00,,,0.00,WeatherDisplay:10.37,2013-10-17 08:44:00,
2013-10-17 04:49:00,59.4,58.8,29.92,ESE,106,0.0,0.0,98,0.00,,,0.00,WeatherDisplay:10.37,2013-10-17 08:49:00,
2013-10-17 04:54:00,59.2,58.6,29.93,ESE,107,0.0,0.0,98,0.00,,,0.00,WeatherDisplay:10.37,2013-10-17 08:54:00,
2013-10-17 04:59:00,59.1,58.0,29.92,ESE,107,0.0,0.0,96,0.00,,,0.00,WeatherDisplay:10.37,2013-10-17 08:59:00,
2013-10-17 05:04:00,59.1,58.0,29.92,ESE,107,0.0,0.0,96,0.00,,,0.00,WeatherDisplay:10.37,2013-10-17 09:04:00,
2013-10-17 05:09:00,59.1,58.0,29.92,ESE,106,0.0,0.0,96,0.00,,,0.00,WeatherDisplay:10.37,2013-10-17 09:09:00,
2013-10-17 05:14:00,59.1,58.0,29.92,ESE,107,0.0,0.0,96,0.00,,,0.00,WeatherDisplay:10.37,2013-10-17 09:14:00,
2013-10-17 05:19:00,59.1,58.0,29.92,ESE,107,0.0,0.0,96,0.00,,,0.00,WeatherDisplay:10.37,2013-10-17 09:19:00,
2013-10-17 05:24:00,59.1,58.0,29.92,ESE,106,0.0,0.0,96,0.00,,,0.00,WeatherDisplay:10.37,2013-10-17 09:24:00,
2013-10-17 05:29:00,59.1,58.5,29.92,ESE,107,0.0,0.0,98,0.00,,,0.00,WeatherDisplay:10.37,2013-10-17 09:29:00,
2013-10-17 05:34:00,59.1,58.5,29.93,ESE,107,0.0,0.0,98,0.00,,,0.00,WeatherDisplay:10.37,2013-10-17 09:34:00,
2013-10-17 05:39:00,59.1,58.5,29.92,ESE,107,0.0,0.0,98,0.00,,,0.00,WeatherDisplay:10.37,2013-10-17 09:39:00,
2013-10-17 05:44:00,59.1,58.5,29.93,ESE,106,0.0,0.0,98,0.00,,,0.00,WeatherDisplay:10.37,2013-10-17 09:44:00,
2013-10-17 05:49:00,59.1,58.5,29.93,ESE,107,0.0,0.0,98,0.00,,,0.00,WeatherDisplay:10.37,2013-10-17 09:49:00,
2013-10-17 05:54:00,59.2,58.6,29.93,ESE,107,0.0,0.0,98,0.00,,,0.00,WeatherDisplay:10.37,2013-10-17 09:54:00,
2013-10-17 05:59:00,59.4,58.8,29.93,ESE,106,0.0,0.0,98,0.00,,,0.00,WeatherDisplay:10.37,2013-10-17 09:59:00,
2013-10-17 06:04:00,59.5,58.9,29.93,ESE,107,0.0,0.0,98,0.00,,,0.00,WeatherDisplay:10.37,2013-10-17 10:04:00,
2013-10-17 06:09:00,59.5,58.9,29.93,ESE,107,0.0,0.0,98,0.00,,,0.00,WeatherDisplay:10.37,2013-10-17 10:09:00,
2013-10-17 06:14:00,59.6,59.0,29.93,ESE,106,0.0,0.0,98,0.00,,,0.00,WeatherDisplay:10.37,2013-10-17 10:14:00,
2013-10-17 06:19:00,59.7,59.1,29.93,ESE,106,0.0,0.0,98,0.00,,,0.00,WeatherDisplay:10.37,2013-10-17 10:19:00,
2013-10-17 06:25:00,59.7,59.1,29.93,ESE,107,0.0,0.0,98,0.00,,,0.00,WeatherDisplay:10.37,2013-10-17 10:25:00,
2013-10-17 06:30:00,59.8,59.2,29.93,ESE,106,0.0,0.0,98,0.00,,,0.00,WeatherDisplay:10.37,2013-10-17 10:30:00,
2013-10-17 06:35:00,59.8,59.2,29.93,ESE,107,0.0,0.0,98,0.00,,,0.00,WeatherDisplay:10.37,2013-10-17 10:35:00,
2013-10-17 06:40:00,59.9,59.3,29.93,ESE,106,1.2,0.0,98,0.00,,,0.00,WeatherDisplay:10.37,2013-10-17 10:40:00,
2013-10-17 06:45:00,59.9,59.3,29.94,ESE,107,0.0,0.0,98,0.00,,,0.00,WeatherDisplay:10.37,2013-10-17 10:45:00,
2013-10-17 06:50:00,60.0,59.4,29.94,ESE,107,0.0,0.0,98,0.00,,,0.00,WeatherDisplay:10.37,2013-10-17 10:50:00,
2013-10-17 06:55:00,60.0,59.4,29.94,ESE,106,0.0,0.0,98,0.00,,,0.00,WeatherDisplay:10.37,2013-10-17 10:55:00,
2013-10-17 07:00:00,60.0,59.4,29.94,ESE,107,0.0,0.0,98,0.00,,,0.00,WeatherDisplay:10.37,2013-10-17 11:00:00,
2013-10-17 07:05:00,60.0,59.4,29.94,ESE,106,0.0,0.0,98,0.00,,,0.00,WeatherDisplay:10.37,2013-10-17 11:05:00,
2013-10-17 07:10:00,60.1,59.5,29.94,ESE,107,0.0,0.0,98,0.00,,,0.00,WeatherDisplay:10.37,2013-10-17 11:10:00,
2013-10-17 07:15:00,60.1,59.5,29.94,ESE,107,1.2,0.0,98,0.00,,,0.00,WeatherDisplay:10.37,2013-10-17 11:15:00,
2013-10-17 07:20:00,60.1,59.5,29.94,ESE,107,0.0,0.0,98,0.00,,,0.00,WeatherDisplay:10.37,2013-10-17 11:20:00,
2013-10-17 07:25:00,60.2,59.6,29.94,ESE,107,0.0,0.0,98,0.00,,,0.00,WeatherDisplay:10.37,2013-10-17 11:25:00,
2013-10-17 07:30:00,60.2,59.6,29.94,ESE,106,0.0,0.0,98,0.00,,,0.00,WeatherDisplay:10.37,2013-10-17 11:30:00,
2013-10-17 07:35:00,60.3,59.7,29.93,ESE,110,3.5,3.5,98,0.00,,,0.00,WeatherDisplay:10.37,2013-10-17 11:35:00,
2013-10-17 07:40:00,60.3,59.7,29.93,ESE,110,1.2,0.0,98,0.00,,,0.00,WeatherDisplay:10.37,2013-10-17 11:40:00,
2013-10-17 07:45:00,60.3,59.7,29.93,ESE,110,0.0,0.0,98,0.00,,,0.00,WeatherDisplay:10.37,2013-10-17 11:45:00,
2013-10-17 07:50:00,60.3,59.7,29.93,ESE,110,1.0,1.0,98,0.00,,,0.00,WeatherDisplay:10.37,2013-10-17 11:50:00,
2013-10-17 07:55:00,60.3,59.7,29.94,ESE,110,2.3,0.0,98,0.00,,,0.00,WeatherDisplay:10.37,2013-10-17 11:55:00,
2013-10-17 08:00:00,60.3,59.7,29.93,ESE,113,2.0,2.0,98,0.00,,,0.00,WeatherDisplay:10.37,2013-10-17 12:00:00,
2013-10-17 08:05:00,60.4,59.8,29.93,ESE,113,0.0,0.0,98,0.00,,,0.00,WeatherDisplay:10.37,2013-10-17 12:05:00,
2013-10-17 08:10:00,60.5,59.9,29.94,ESE,113,0.0,0.0,98,0.00,,,0.00,WeatherDisplay:10.37,2013-10-17 12:10:00,
2013-10-17 08:15:00,60.6,60.0,29.94,ESE,113,1.2,0.0,98,0.00,,,0.00,WeatherDisplay:10.37,2013-10-17 12:15:00,
2013-10-17 08:20:00,60.8,60.5,29.94,ESE,113,3.5,3.5,99,0.00,,,0.00,WeatherDisplay:10.37,2013-10-17 12:20:00,
2013-10-17 08:25:00,60.9,60.6,29.94,ESE,113,0.0,0.0,99,0.00,,,0.00,WeatherDisplay:10.37,2013-10-17 12:25:00,
2013-10-17 08:30:00,61.1,60.5,29.94,ESE,113,2.3,2.3,98,0.00,,,0.00,WeatherDisplay:10.37,2013-10-17 12:30:00,
2013-10-17 08:35:00,61.3,61.0,29.94,ESE,115,1.2,1.2,99,0.00,,,0.00,WeatherDisplay:10.37,2013-10-17 12:35:00,
2013-10-17 08:40:00,61.5,61.2,29.94,ESE,115,3.5,3.5,99,0.00,,,0.00,WeatherDisplay:10.37,2013-10-17 12:40:00,
2013-10-17 08:45:00,61.6,61.3,29.94,ESE,116,0.0,0.9,99,0.00,,,0.00,WeatherDisplay:10.37,2013-10-17 12:45:00,
2013-10-17 08:50:00,61.7,61.4,29.94,ESE,116,2.3,2.3,99,0.00,,,0.00,WeatherDisplay:10.37,2013-10-17 12:50:00,
2013-10-17 08:55:00,61.8,61.5,29.94,ESE,115,0.0,0.0,99,0.00,,,0.00,WeatherDisplay:10.37,2013-10-17 12:55:00,
2013-10-17 09:00:00,61.8,61.5,29.95,ESE,117,2.3,2.3,99,0.00,,,0.00,WeatherDisplay:10.37,2013-10-17 13:00:00,
2013-10-17 09:05:00,61.8,61.5,29.95,ESE,117,0.0,0.0,99,0.00,,,0.00,WeatherDisplay:10.37,2013-10-17 13:05:00,
2013-10-17 09:10:00,61.8,61.5,29.95,ESE,117,0.0,0.0,99,0.00,,,0.00,WeatherDisplay:10.37,2013-10-17 13:10:00,
2013-10-17 09:15:00,62.0,61.7,29.95,ESE,117,3.5,3.5,99,0.00,,,0.00,WeatherDisplay:10.37,2013-10-17 13:15:00,
2013-10-17 09:20:00,62.7,62.4,29.95,ESE,117,2.3,2.3,99,0.00,,,0.00,WeatherDisplay:10.37,2013-10-17 13:20:00,
2013-10-17 09:25:00,63.1,62.8,29.95,WSW,254,3.5,3.5,99,0.00,,,0.00,WeatherDisplay:10.37,2013-10-17 13:25:00,
2013-10-17 09:30:00,63.5,63.2,29.95,SW,226,6.9,6.9,99,0.00,,,0.00,WeatherDisplay:10.37,2013-10-17 13:30:00,
2013-10-17 09:35:00,64.0,63.7,29.94,SW,233,3.5,3.5,99,0.00,,,0.00,WeatherDisplay:10.37,2013-10-17 13:35:00,
2013-10-17 09:40:00,64.3,64.0,29.94,SW,222,3.5,3.5,99,0.00,,,0.00,WeatherDisplay:10.37,2013-10-17 13:40:00,
2013-10-17 09:45:00,64.6,64.3,29.94,WSW,250,6.9,6.9,99,0.00,,,0.00,WeatherDisplay:10.37,2013-10-17 13:45:00,
2013-10-17 09:50:00,64.9,64.6,29.94,SSW,200,6.9,6.9,99,0.00,,,0.00,WeatherDisplay:10.37,2013-10-17 13:50:00,
2013-10-17 09:55:00,65.3,65.0,29.94,SSW,202,6.9,6.9,99,0.00,,,0.00,WeatherDisplay:10.37,2013-10-17 13:55:00,
2013-10-17 10:00:00,65.7,65.4,29.94,SSW,201,4.6,4.6,99,0.00,,,0.00,WeatherDisplay:10.37,2013-10-17 14:00:00,
2013-10-17 10:05:00,66.1,65.5,29.94,SSW,204,5.8,5.8,98,0.00,,,0.00,WeatherDisplay:10.37,2013-10-17 14:05:00,
2013-10-17 10:10:00,66.4,65.8,29.95,WSW,244,6.9,6.9,98,0.00,,,0.00,WeatherDisplay:10.37,2013-10-17 14:10:00,
2013-10-17 10:15:00,66.9,65.7,29.94,SSW,208,4.6,4.6,96,0.00,,,0.00,WeatherDisplay:10.37,2013-10-17 14:15:00,
2013-10-17 10:20:00,67.3,66.1,29.95,SSW,210,4.6,4.6,96,0.00,,,0.00,WeatherDisplay:10.37,2013-10-17 14:20:00,
2013-10-17 10:25:00,67.8,66.3,29.95,SSW,209,6.9,6.9,95,0.00,,,0.00,WeatherDisplay:10.37,2013-10-17 14:25:00,
2013-10-17 10:30:00,68.4,66.6,29.95,SSW,195,4.6,4.6,94,0.00,,,0.00,WeatherDisplay:10.37,2013-10-17 14:30:00,
2013-10-17 10:35:00,68.8,66.1,29.94,SSW,207,6.9,6.9,91,0.00,,,0.00,WeatherDisplay:10.37,2013-10-17 14:35:00,
2013-10-17 10:40:00,69.3,65.6,29.94,SSW,213,9.2,9.2,88,0.00,,,0.00,WeatherDisplay:10.37,2013-10-17 14:40:00,
2013-10-17 10:45:00,69.7,65.3,29.95,SSW,205,10.4,10.4,86,0.00,,,0.00,WeatherDisplay:10.37,2013-10-17 14:45:00,
2013-10-17 10:50:00,70.1,65.4,29.95,SW,218,4.6,4.6,85,0.00,,,0.00,WeatherDisplay:10.37,2013-10-17 14:50:00,
2013-10-17 10:55:00,70.4,64.6,29.94,WNW,300,6.9,6.9,82,0.00,,,0.00,WeatherDisplay:10.37,2013-10-17 14:55:00,
2013-10-17 11:00:00,70.7,64.6,29.95,South,171,15.0,15.0,81,0.00,,,0.00,WeatherDisplay:10.37,2013-10-17 15:00:00,
2013-10-17 11:05:00,70.8,64.0,29.94,SSW,204,6.9,6.9,79,0.00,,,0.00,WeatherDisplay:10.37,2013-10-17 15:05:00,
2013-10-17 11:10:00,71.1,64.6,29.94,SW,230,8.1,8.1,80,0.00,,,0.00,WeatherDisplay:10.37,2013-10-17 15:10:00,
2013-10-17 11:15:00,71.2,64.4,29.94,SW,236,5.8,5.8,79,0.00,,,0.00,WeatherDisplay:10.37,2013-10-17 15:15:00,
2013-10-17 11:20:00,71.5,64.6,29.94,SSW,200,5.8,5.8,79,0.00,,,0.00,WeatherDisplay:10.37,2013-10-17 15:20:00,
2013-10-17 11:25:00,71.8,64.6,29.94,SSW,210,10.4,10.4,78,0.00,,,0.00,WeatherDisplay:10.37,2013-10-17 15:25:00,
2013-10-17 11:30:00,71.8,64.2,29.93,SW,223,10.4,10.4,77,0.00,,,0.00,WeatherDisplay:10.37,2013-10-17 15:30:00,
2013-10-17 11:35:00,71.7,64.1,29.94,West,267,9.2,9.2,77,0.00,,,0.00,WeatherDisplay:10.37,2013-10-17 15:35:00,
2013-10-17 11:40:00,71.5,63.9,29.94,SW,232,6.9,6.9,77,0.00,,,0.00,WeatherDisplay:10.37,2013-10-17 15:40:00,
2013-10-17 11:45:00,71.4,64.2,29.93,WSW,242,3.5,3.5,78,0.00,,,0.00,WeatherDisplay:10.37,2013-10-17 15:45:00,
2013-10-17 11:50:00,71.4,64.2,29.93,SW,226,1.2,0.0,78,0.00,,,0.00,WeatherDisplay:10.37,2013-10-17 15:50:00,
2013-10-17 11:55:00,71.3,64.1,29.93,SW,215,3.5,3.5,78,0.00,,,0.00,WeatherDisplay:10.37,2013-10-17 15:55:00,
2013-10-17 12:00:00,71.4,64.5,29.92,SSW,198,4.6,4.6,79,0.00,,,0.00,WeatherDisplay:10.37,2013-10-17 16:00:00,
2013-10-17 12:05:00,71.7,64.5,29.93,SW,219,9.2,9.2,78,0.00,,,0.00,WeatherDisplay:10.37,2013-10-17 16:05:00,
2013-10-17 12:10:00,72.2,65.0,29.92,SSW,202,9.2,9.2,78,0.00,,,0.00,WeatherDisplay:10.37,2013-10-17 16:10:00,
2013-10-17 12:15:00,72.7,65.1,29.92,SW,230,6.9,6.9,77,0.00,,,0.00,WeatherDisplay:10.37,2013-10-17 16:15:00,
2013-10-17 12:20:00,73.1,64.7,29.92,SW,229,9.2,9.2,75,0.00,,,0.00,WeatherDisplay:10.37,2013-10-17 16:20:00,
2013-10-17 12:25:00,73.2,64.8,29.92,SSW,192,9.2,9.2,75,0.00,,,0.00,WeatherDisplay:10.37,2013-10-17 16:25:00,
2013-10-17 12:30:00,73.4,64.2,29.92,South,178,10.4,10.4,73,0.00,,,0.00,WeatherDisplay:10.37,2013-10-17 16:30:00,
2013-10-17 12:35:00,73.4,64.2,29.92,SSW,209,6.9,6.9,73,0.00,,,0.00,WeatherDisplay:10.37,2013-10-17 16:35:00,
2013-10-17 12:40:00,73.4,64.2,29.92,SSW,213,9.2,9.2,73,0.00,,,0.00,WeatherDisplay:10.37,2013-10-17 16:40:00,
2013-10-17 12:45:00,73.4,63.8,29.92,SSW,211,5.8,5.8,72,0.00,,,0.00,WeatherDisplay:10.37,2013-10-17 16:45:00,
2013-10-17 12:50:00,73.4,63.8,29.91,SSW,209,3.5,3.5,72,0.00,,,0.00,WeatherDisplay:10.37,2013-10-17 16:50:00,
2013-10-17 12:55:00,73.5,63.9,29.91,SSW,204,12.7,12.7,72,0.00,,,0.00,WeatherDisplay:10.37,2013-10-17 16:55:00,
2013-10-17 13:00:00,73.5,63.9,29.91,West,261,11.5,11.5,72,0.00,,,0.00,WeatherDisplay:10.37,2013-10-17 17:00:00,
2013-10-17 13:05:00,73.5,63.9,29.90,South,188,11.5,11.5,72,0.00,,,0.00,WeatherDisplay:10.37,2013-10-17 17:05:00,
2013-10-17 13:10:00,73.5,63.9,29.90,West,261,6.9,6.9,72,0.00,,,0.00,WeatherDisplay:10.37,2013-10-17 17:10:00,
2013-10-17 13:15:00,73.6,64.4,29.90,SSW,202,6.9,6.9,73,0.00,,,0.00,WeatherDisplay:10.37,2013-10-17 17:15:00,
2013-10-17 13:20:00,73.7,64.5,29.90,SSW,210,11.5,11.5,73,0.00,,,0.00,WeatherDisplay:10.37,2013-10-17 17:20:00,
2013-10-17 13:25:00,73.9,65.5,29.89,SSW,205,10.4,10.4,75,0.00,,,0.00,WeatherDisplay:10.37,2013-10-17 17:25:00,
2013-10-17 13:30:00,74.2,65.0,29.89,WSW,237,10.4,10.4,73,0.00,,,0.00,WeatherDisplay:10.37,2013-10-17 17:30:00,
2013-10-17 13:35:00,74.3,64.7,29.89,WSW,248,6.9,6.9,72,0.00,,,0.00,WeatherDisplay:10.37,2013-10-17 17:35:00,
2013-10-17 13:40:00,74.2,64.2,29.89,SSW,194,9.2,9.2,71,0.00,,,0.00,WeatherDisplay:10.37,2013-10-17 17:40:00,
2013-10-17 13:45:00,74.1,64.5,29.89,WSW,246,3.5,3.5,72,0.00,,,0.00,WeatherDisplay:10.37,2013-10-17 17:45:00,
2013-10-17 13:50:00,74.2,64.6,29.88,SSW,212,5.8,5.8,72,0.00,,,0.00,WeatherDisplay:10.37,2013-10-17 17:50:00,
2013-10-17 13:55:00,74.3,64.7,29.88,WSW,244,6.9,6.9,72,0.00,,,0.00,WeatherDisplay:10.37,2013-10-17 17:55:00,
2013-10-17 14:00:00,74.6,65.0,29.89,WSW,240,6.9,6.9,72,0.00,,,0.00,WeatherDisplay:10.37,2013-10-17 18:00:00,
2013-10-17 14:05:00,74.8,65.2,29.88,ESE,110,9.2,9.2,72,0.00,,,0.00,WeatherDisplay:10.37,2013-10-17 18:05:00,
2013-10-17 14:10:00,74.9,65.3,29.88,WSW,239,3.5,3.5,72,0.00,,,0.00,WeatherDisplay:10.37,2013-10-17 18:10:00,
2013-10-17 14:15:00,75.0,65.0,29.88,SW,233,4.6,4.6,71,0.00,,,0.00,WeatherDisplay:10.37,2013-10-17 18:15:00,
2013-10-17 14:20:00,75.0,65.4,29.87,SW,215,4.6,4.6,72,0.00,,,0.00,WeatherDisplay:10.37,2013-10-17 18:20:00,
2013-10-17 14:25:00,75.0,65.4,29.87,WSW,239,9.2,9.2,72,0.00,,,0.00,WeatherDisplay:10.37,2013-10-17 18:25:00,
2013-10-17 14:30:00,75.0,65.0,29.87,SW,227,6.9,6.9,71,0.00,,,0.00,WeatherDisplay:10.37,2013-10-17 18:30:00,
2013-10-17 14:35:00,74.9,64.9,29.87,SW,215,12.7,12.7,71,0.00,,,0.00,WeatherDisplay:10.37,2013-10-17 18:35:00,
2013-10-17 14:40:00,74.8,64.8,29.87,SSW,198,11.5,11.5,71,0.00,,,0.00,WeatherDisplay:10.37,2013-10-17 18:40:00,
2013-10-17 14:45:00,74.5,64.9,29.87,WSW,242,3.5,3.5,72,0.00,,,0.00,WeatherDisplay:10.37,2013-10-17 18:45:00,
2013-10-17 14:50:00,74.4,64.8,29.87,WSW,238,10.4,10.4,72,0.00,,,0.00,WeatherDisplay:10.37,2013-10-17 18:50:00,
2013-10-17 14:55:00,74.3,64.7,29.87,SE,136,8.1,8.1,72,0.00,,,0.00,WeatherDisplay:10.37,2013-10-17 18:55:00,
2013-10-17 15:00:00,74.2,64.6,29.87,SW,215,6.9,6.9,72,0.00,,,0.00,WeatherDisplay:10.37,2013-10-17 19:00:00,
2013-10-17 15:05:00,74.2,64.6,29.87,West,264,6.9,6.9,72,0.00,,,0.00,WeatherDisplay:10.37,2013-10-17 19:05:00,
2013-10-17 15:10:00,74.1,64.9,29.87,SSW,194,5.8,5.8,73,0.00,,,0.00,WeatherDisplay:10.37,2013-10-17 19:10:00,
2013-10-17 15:15:00,74.0,64.4,29.87,SW,215,4.6,4.6,72,0.00,,,0.00,WeatherDisplay:10.37,2013-10-17 19:15:00,
2013-10-17 15:20:00,73.8,64.6,29.87,SSW,207,10.4,10.4,73,0.00,,,0.00,WeatherDisplay:10.37,2013-10-17 19:20:00,
2013-10-17 15:25:00,73.6,64.4,29.86,SW,216,3.5,3.5,73,0.00,,,0.00,WeatherDisplay:10.37,2013-10-17 19:25:00,
2013-10-17 15:30:00,73.5,65.1,29.86,SSW,200,4.6,4.6,75,0.00,,,0.00,WeatherDisplay:10.37,2013-10-17 19:30:00,
2013-10-17 15:31:00,73.5,65.1,29.86,SSW,199,5.8,5.8,75,0.00,,,0.00,WeatherDisplay:10.37,2013-10-17 19:31:00,
2013-10-17 15:36:00,73.4,65.0,29.86,SW,214,5.8,5.8,75,0.00,,,0.00,WeatherDisplay:10.37,2013-10-17 19:36:00,
2013-10-17 15:41:00,73.4,65.4,29.86,South,190,4.0,4.0,76,0.00,,,0.00,WeatherDisplay:10.37,2013-10-17 19:41:00,
2013-10-17 15:46:00,73.4,65.4,29.86,SSW,206,4.6,4.7,76,0.00,,,0.00,WeatherDisplay:10.37,2013-10-17 19:46:00,
2013-10-17 15:51:00,73.3,64.1,29.85,WSW,244,4.6,4.6,73,0.00,,,0.00,WeatherDisplay:10.37,2013-10-17 19:51:00,
2013-10-17 15:56:00,73.3,64.9,29.85,SW,223,6.9,6.9,75,0.00,,,0.00,WeatherDisplay:10.37,2013-10-17 19:56:00,
2013-10-17 16:01:00,73.2,64.8,29.86,SSW,213,3.5,3.5,75,0.00,,,0.00,WeatherDisplay:10.37,2013-10-17 20:01:00,
2013-10-17 16:06:00,73.3,65.3,29.86,SSW,210,6.9,6.9,76,0.00,,,0.00,WeatherDisplay:10.37,2013-10-17 20:06:00,
2013-10-17 16:11:00,73.2,65.2,29.86,South,191,9.2,9.2,76,0.00,,,0.00,WeatherDisplay:10.37,2013-10-17 20:11:00,
2013-10-17 16:16:00,73.2,65.2,29.86,SSW,211,3.5,3.5,76,0.00,,,0.00,WeatherDisplay:10.37,2013-10-17 20:16:00,
2013-10-17 16:21:00,73.1,65.1,29.85,SSE,161,5.8,5.8,76,0.00,,,0.00,WeatherDisplay:10.37,2013-10-17 20:21:00,
2013-10-17 16:26:00,73.1,65.5,29.86,SSW,205,3.5,3.5,77,0.00,,,0.00,WeatherDisplay:10.37,2013-10-17 20:26:00,
2013-10-17 16:31:00,73.0,65.4,29.86,South,190,4.6,4.6,77,0.00,,,0.00,WeatherDisplay:10.37,2013-10-17 20:31:00,
2013-10-17 16:36:00,72.9,65.3,29.85,SSW,203,4.6,4.6,77,0.00,,,0.00,WeatherDisplay:10.37,2013-10-17 20:36:00,
2013-10-17 16:41:00,72.8,65.2,29.85,SW,215,4.6,4.6,77,0.00,,,0.00,WeatherDisplay:10.37,2013-10-17 20:41:00,
2013-10-17 16:46:00,72.7,65.1,29.85,SW,217,0.0,0.0,77,0.00,,,0.00,WeatherDisplay:10.37,2013-10-17 20:46:00,
2013-10-17 16:51:00,72.6,65.3,29.85,SW,217,3.5,3.5,78,0.00,,,0.00,WeatherDisplay:10.37,2013-10-17 20:51:00,
2013-10-17 16:56:00,72.5,65.2,29.85,SW,217,1.2,0.0,78,0.00,,,0.00,WeatherDisplay:10.37,2013-10-17 20:56:00,
2013-10-17 17:01:00,72.5,65.6,29.85,SW,217,2.3,2.3,79,0.00,,,0.00,WeatherDisplay:10.37,2013-10-17 21:01:00,
2013-10-17 17:06:00,72.4,65.9,29.85,SW,217,1.2,1.2,80,0.00,,,0.00,WeatherDisplay:10.37,2013-10-17 21:06:00,
2013-10-17 17:11:00,72.3,65.8,29.85,SW,217,3.5,3.5,80,0.00,,,0.00,WeatherDisplay:10.37,2013-10-17 21:11:00,
2013-10-17 17:16:00,72.2,65.7,29.85,SW,217,3.5,3.5,80,0.00,,,0.00,WeatherDisplay:10.37,2013-10-17 21:16:00,
2013-10-17 17:21:00,72.0,65.5,29.84,South,188,3.5,3.5,80,0.00,,,0.00,WeatherDisplay:10.37,2013-10-17 21:21:00,
2013-10-17 17:26:00,71.8,65.3,29.84,SW,217,3.5,3.5,80,0.00,,,0.00,WeatherDisplay:10.37,2013-10-17 21:26:00,
2013-10-17 17:31:00,71.7,65.2,29.84,SW,217,1.2,0.0,80,0.00,,,0.00,WeatherDisplay:10.37,2013-10-17 21:31:00,
2013-10-17 17:36:00,71.6,65.5,29.84,South,188,4.6,4.6,81,0.00,,,0.00,WeatherDisplay:10.37,2013-10-17 21:36:00,
2013-10-17 17:41:00,71.5,65.4,29.84,SW,214,4.6,4.6,81,0.00,,,0.00,WeatherDisplay:10.37,2013-10-17 21:41:00,
2013-10-17 17:46:00,71.4,65.3,29.84,SW,214,4.6,4.6,81,0.00,,,0.00,WeatherDisplay:10.37,2013-10-17 21:46:00,
2013-10-17 17:51:00,71.4,65.3,29.84,SSW,213,3.5,3.5,81,0.00,,,0.00,WeatherDisplay:10.37,2013-10-17 21:51:00,
2013-10-17 17:56:00,71.3,65.2,29.84,SSW,194,5.8,5.8,81,0.00,,,0.00,WeatherDisplay:10.37,2013-10-17 21:56:00,
2013-10-17 18:01:00,71.2,65.4,29.84,SSW,194,3.5,3.5,82,0.00,,,0.00,WeatherDisplay:10.37,2013-10-17 22:01:00,
2013-10-17 18:06:00,71.1,65.3,29.84,SSW,200,3.5,3.5,82,0.00,,,0.00,WeatherDisplay:10.37,2013-10-17 22:06:00,
2013-10-17 18:11:00,71.0,65.2,29.84,SSW,196,2.3,0.0,82,0.00,,,0.00,WeatherDisplay:10.37,2013-10-17 22:11:00,
2013-10-17 18:16:00,70.9,65.1,29.84,SSW,196,2.3,0.0,82,0.00,,,0.00,WeatherDisplay:10.37,2013-10-17 22:16:00,
2013-10-17 18:21:00,70.8,65.0,29.84,South,172,4.6,4.6,82,0.00,,,0.00,WeatherDisplay:10.37,2013-10-17 22:21:00,
2013-10-17 18:26:00,70.7,64.9,29.84,SSW,213,4.6,4.6,82,0.00,,,0.00,WeatherDisplay:10.37,2013-10-17 22:26:00,
2013-10-17 18:31:00,70.6,65.5,29.84,SSW,213,3.5,3.5,84,0.00,,,0.00,WeatherDisplay:10.37,2013-10-17 22:31:00,
2013-10-17 18:36:00,70.4,65.3,29.84,SW,215,3.5,3.5,84,0.00,,,0.00,WeatherDisplay:10.37,2013-10-17 22:36:00,
2013-10-17 18:41:00,70.4,65.3,29.84,South,188,3.5,3.5,84,0.00,,,0.00,WeatherDisplay:10.37,2013-10-17 22:41:00,
2013-10-17 18:46:00,70.2,65.1,29.84,SSE,160,3.5,3.5,84,0.00,,,0.00,WeatherDisplay:10.37,2013-10-17 22:46:00,
2013-10-17 18:51:00,70.2,65.1,29.83,South,180,1.2,1.2,84,0.00,,,0.00,WeatherDisplay:10.37,2013-10-17 22:51:00,
2013-10-17 18:56:00,70.1,65.4,29.84,SW,218,5.8,5.8,85,0.00,,,0.00,WeatherDisplay:10.37,2013-10-17 22:56:00,
2013-10-17 19:01:00,70.0,65.3,29.83,SSW,205,3.5,3.5,85,0.00,,,0.00,WeatherDisplay:10.37,2013-10-17 23:01:00,
2013-10-17 19:06:00,69.9,65.2,29.83,South,186,3.5,3.5,85,0.00,,,0.00,WeatherDisplay:10.37,2013-10-17 23:06:00,
2013-10-17 19:11:00,69.8,65.4,29.84,SSW,195,6.9,6.9,86,0.00,,,0.00,WeatherDisplay:10.37,2013-10-17 23:11:00,
2013-10-17 19:16:00,69.8,65.4,29.84,SSW,207,4.6,4.6,86,0.00,,,0.00,WeatherDisplay:10.37,2013-10-17 23:16:00,
2013-10-17 19:21:00,69.6,65.2,29.84,SW,214,5.0,5.4,86,0.00,,,0.00,WeatherDisplay:10.37,2013-10-17 23:21:00,
2013-10-17 19:26:00,69.5,65.1,29.84,SSW,210,5.8,5.8,86,0.00,,,0.00,WeatherDisplay:10.37,2013-10-17 23:26:00,
2013-10-17 19:31:00,69.5,65.5,29.84,SW,217,5.8,5.8,87,0.00,,,0.00,WeatherDisplay:10.37,2013-10-17 23:31:00,
2013-10-17 19:36:00,69.4,65.4,29.84,SSW,205,2.3,2.3,87,0.00,,,0.00,WeatherDisplay:10.37,2013-10-17 23:36:00,
2013-10-17 19:41:00,69.3,65.3,29.84,SSW,207,9.2,9.2,87,0.00,,,0.00,WeatherDisplay:10.37,2013-10-17 23:41:00,
2013-10-17 19:46:00,69.3,65.3,29.84,SSW,206,8.1,8.1,87,0.00,,,0.00,WeatherDisplay:10.37,2013-10-17 23:46:00,
2013-10-17 19:51:00,69.2,65.5,29.84,SSW,203,3.5,3.6,88,0.00,,,0.00,WeatherDisplay:10.37,2013-10-17 23:51:00,
2013-10-17 19:56:00,69.2,65.5,29.84,SSW,198,9.0,9.0,88,0.00,,,0.00,WeatherDisplay:10.37,2013-10-17 23:56:00,
2013-10-17 20:01:00,69.2,65.5,29.84,SSW,206,4.0,4.0,88,0.00,,,0.00,WeatherDisplay:10.37,2013-10-18 00:01:00,
2013-10-17 20:06:00,69.1,65.4,29.84,South,188,9.2,9.2,88,0.00,,,0.00,WeatherDisplay:10.37,2013-10-18 00:06:00,
2013-10-17 20:11:00,69.0,65.3,29.84,SSW,202,4.6,4.6,88,0.00,,,0.00,WeatherDisplay:10.37,2013-10-18 00:11:00,
2013-10-17 20:16:00,69.0,65.3,29.84,SSW,212,10.4,10.4,88,0.00,,,0.00,WeatherDisplay:10.37,2013-10-18 00:16:00,
2013-10-17 20:21:00,69.0,65.3,29.84,SW,227,3.5,3.5,88,0.00,,,0.00,WeatherDisplay:10.37,2013-10-18 00:21:00,
2013-10-17 20:26:00,69.0,65.3,29.84,WSW,239,2.3,2.3,88,0.00,,,0.00,WeatherDisplay:10.37,2013-10-18 00:26:00,
2013-10-17 20:31:00,68.9,65.2,29.84,SW,216,4.6,4.6,88,0.00,,,0.00,WeatherDisplay:10.37,2013-10-18 00:31:00,
2013-10-17 20:36:00,69.0,65.3,29.84,SW,232,3.5,3.5,88,0.00,,,0.00,WeatherDisplay:10.37,2013-10-18 00:36:00,
2013-10-17 20:41:00,68.9,65.2,29.85,SSW,211,4.6,4.6,88,0.00,,,0.00,WeatherDisplay:10.37,2013-10-18 00:41:00,
2013-10-17 20:46:00,68.9,65.2,29.85,SSW,209,1.2,1.2,88,0.00,,,0.00,WeatherDisplay:10.37,2013-10-18 00:46:00,
2013-10-17 20:51:00,68.9,65.2,29.85,SSW,210,0.0,0.0,88,0.00,,,0.00,WeatherDisplay:10.37,2013-10-18 00:51:00,
2013-10-17 20:56:00,68.8,65.1,29.85,WSW,246,3.5,3.5,88,0.00,,,0.00,WeatherDisplay:10.37,2013-10-18 00:56:00,
2013-10-17 21:01:00,68.8,65.1,29.85,WSW,246,0.0,0.1,88,0.00,,,0.00,WeatherDisplay:10.37,2013-10-18 01:01:00,
2013-10-17 21:06:00,68.7,65.3,29.85,WSW,246,0.0,0.0,89,0.00,,,0.00,WeatherDisplay:10.37,2013-10-18 01:06:00,
2013-10-17 21:11:00,68.7,65.3,29.85,WSW,240,3.5,3.5,89,0.00,,,0.00,WeatherDisplay:10.37,2013-10-18 01:11:00,
2013-10-17 21:16:00,68.6,65.2,29.86,SW,219,2.3,2.3,89,0.00,,,0.00,WeatherDisplay:10.37,2013-10-18 01:16:00,
2013-10-17 21:21:00,68.6,65.2,29.85,SW,226,6.9,6.9,89,0.00,,,0.00,WeatherDisplay:10.37,2013-10-18 01:21:00,
2013-10-17 21:26:00,68.5,65.1,29.86,SSW,200,4.6,4.6,89,0.00,,,0.00,WeatherDisplay:10.37,2013-10-18 01:26:00,
2013-10-17 21:31:00,68.5,65.1,29.86,WSW,240,10.4,10.4,89,0.00,,,0.00,WeatherDisplay:10.37,2013-10-18 01:31:00,
2013-10-17 21:36:00,68.5,65.8,29.86,South,190,10.4,10.4,91,0.00,,,0.00,WeatherDisplay:10.37,2013-10-18 01:36:00,
2013-10-17 21:41:00,68.5,65.8,29.86,SW,225,5.8,5.8,91,0.00,,,0.00,WeatherDisplay:10.37,2013-10-18 01:41:00,
2013-10-17 21:46:00,68.5,65.8,29.86,SW,214,6.9,6.9,91,0.00,,,0.00,WeatherDisplay:10.37,2013-10-18 01:46:00,
2013-10-17 21:51:00,68.5,65.8,29.86,SW,217,10.4,10.4,91,0.00,,,0.00,WeatherDisplay:10.37,2013-10-18 01:51:00,
2013-10-17 21:56:00,68.5,65.8,29.86,SW,215,6.9,6.9,91,0.00,,,0.00,WeatherDisplay:10.37,2013-10-18 01:56:00,
2013-10-17 22:01:00,68.6,65.9,29.86,SSW,211,9.2,9.2,91,0.00,,,0.00,WeatherDisplay:10.37,2013-10-18 02:01:00,
2013-10-17 22:06:00,68.6,65.9,29.86,SSW,202,6.9,6.9,91,0.00,,,0.00,WeatherDisplay:10.37,2013-10-18 02:06:00,
2013-10-17 22:11:00,68.7,66.0,29.86,SW,217,9.2,9.2,91,0.00,,,0.00,WeatherDisplay:10.37,2013-10-18 02:11:00,
2013-10-17 22:16:00,68.7,66.0,29.86,WSW,253,6.9,6.9,91,0.00,,,0.00,WeatherDisplay:10.37,2013-10-18 02:16:00,
2013-10-17 22:21:00,68.7,66.0,29.86,SW,232,11.5,11.5,91,0.00,,,0.00,WeatherDisplay:10.37,2013-10-18 02:21:00,
2013-10-17 22:26:00,68.8,65.4,29.87,SSW,200,9.2,9.2,89,0.00,,,0.00,WeatherDisplay:10.37,2013-10-18 02:26:00,
2013-10-17 22:31:00,68.8,65.4,29.87,SW,215,11.5,11.5,89,0.00,,,0.00,WeatherDisplay:10.37,2013-10-18 02:31:00,
2013-10-17 22:36:00,68.9,65.5,29.87,WSW,238,11.5,11.5,89,0.00,,,0.00,WeatherDisplay:10.37,2013-10-18 02:36:00,
2013-10-17 22:41:00,68.9,65.5,29.87,SSW,207,3.5,3.5,89,0.00,,,0.00,WeatherDisplay:10.37,2013-10-18 02:41:00,
2013-10-17 22:46:00,68.9,65.5,29.87,SW,231,5.8,5.8,89,0.00,,,0.00,WeatherDisplay:10.37,2013-10-18 02:46:00,
2013-10-17 22:52:00,68.9,65.5,29.87,SW,236,3.0,3.0,89,0.00,,,0.00,WeatherDisplay:10.37,2013-10-18 02:52:00,
2013-10-17 22:57:00,69.0,65.6,29.87,SW,229,4.6,4.6,89,0.00,,,0.00,WeatherDisplay:10.37,2013-10-18 02:57:00,
2013-10-17 23:02:00,68.9,65.5,29.87,SW,224,4.6,4.6,89,0.00,,,0.00,WeatherDisplay:10.37,2013-10-18 03:02:00,
2013-10-17 23:07:00,68.9,65.5,29.87,SW,221,3.5,3.5,89,0.00,,,0.00,WeatherDisplay:10.37,2013-10-18 03:07:00,
2013-10-17 23:12:00,68.9,65.5,29.87,SSW,207,5.8,5.8,89,0.00,,,0.00,WeatherDisplay:10.37,2013-10-18 03:12:00,
2013-10-17 23:17:00,68.8,65.4,29.87,WSW,238,8.1,8.1,89,0.00,,,0.00,WeatherDisplay:10.37,2013-10-18 03:17:00,
2013-10-17 23:22:00,68.8,65.4,29.87,WSW,238,3.0,3.0,89,0.00,,,0.00,WeatherDisplay:10.37,2013-10-18 03:22:00,
2013-10-17 23:27:00,68.7,65.3,29.87,WSW,237,3.5,0.0,89,0.00,,,0.00,WeatherDisplay:10.37,2013-10-18 03:27:00,
2013-10-17 23:32:00,68.7,65.3,29.87,SW,221,3.5,3.5,89,0.00,,,0.00,WeatherDisplay:10.37,2013-10-18 03:32:00,
2013-10-17 23:37:00,68.7,65.3,29.87,SW,225,3.5,3.5,89,0.00,,,0.00,WeatherDisplay:10.37,2013-10-18 03:37:00,
2013-10-17 23:42:00,68.6,65.9,29.87,SW,225,3.5,0.0,91,0.00,,,0.00,WeatherDisplay:10.37,2013-10-18 03:42:00,
2013-10-17 23:47:00,68.5,65.1,29.87,SW,221,3.5,3.5,89,0.00,,,0.00,WeatherDisplay:10.37,2013-10-18 03:47:00,
2013-10-17 23:52:00,68.4,65.0,29.87,WSW,240,3.5,0.0,89,0.00,,,0.00,WeatherDisplay:10.37,2013-10-18 03:52:00,
2013-10-17 23:57:00,68.4,65.7,29.87,SSW,209,4.6,0.0,91,0.00,,,0.00,WeatherDisplay:10.37,2013-10-18 03:57:00,